Regional Weather Roundup
Issued by NWS Raleigh/Durham, NC

Home | Current Version | Previous Version | Text Only | Print | Product List | Glossary On
Versions: 1 2 3 4 5 6 7 8 9 10 11 12 13 14 15 16 17 18 19 20 21 22 23 24 25 26 27 28 29 30 31 32 33 34 35 36 37 38 39 40 41 42 43 44 45 46 47 48 49 50
000
ASUS42 KRAH 271810
RWRRAH
NORTH CAROLINA WEATHER ROUNDUP
NATIONAL WEATHER SERVICE RALEIGH NC
200 PM EDT SAT MAY 27 2017

NOTE: "FAIR" INDICATES FEW OR NO CLOUDS BELOW 12,000 FEET WITH NO
SIGNIFICANT WEATHER AND/OR OBSTRUCTIONS TO VISIBILITY.

NCZ001-053-055-056-065-067-271900-
WESTERN NORTH CAROLINA

CITY           SKY/WX    TMP DP  RH WIND       PRES   REMARKS
ASHEVILLE      CLOUDY    79  58  48 S6        30.03F
JEFFERSON      PTSUNNY   73  59  60 W7G18     30.06S
MORGANTON      PTSUNNY   83  60  46 S6        30.02S
HICKORY        MOSUNNY   83  60  45 S10       29.97S
RUTHERFORDTON  CLOUDY    82  64  53 S8G22     29.99S
MOUNT AIRY     MOSUNNY   83  64  52 W7        29.96S
BOONE          PTSUNNY   73  57  56 W9G21     30.07F
$$

NCZ021-022-025-041-071-084-088-271900-
CENTRAL NORTH CAROLINA

CITY           SKY/WX    TMP DP  RH WIND       PRES   REMARKS
CHARLOTTE      PTSUNNY   86  64  47 W10       29.96F
GREENSBORO     PTSUNNY   84  66  54 SW14      29.92F
WINSTON-SALEM  SUNNY     85  58  39 W10G20    29.94F
RALEIGH-DURHAM MOSUNNY   86  67  52 SW10      29.92F
FORT BRAGG     SUNNY     88  60  38 SW8G16    29.91F
FAYETTEVILLE   SUNNY     90  62  39 S10       29.92F
BURLINGTON     SUNNY     87  64  46 SW9       29.92S
LAURINBURG     SUNNY     89  65  44 W12       29.94F
$$

NCZ011-015-027-028-043-044-047-080-103-271900-
NORTHEASTERN NORTH CAROLINA

CITY           SKY/WX    TMP DP  RH WIND       PRES   REMARKS
ROCKY MT-WILSO SUNNY     87  66  49 SW7       29.91F
GREENVILLE     SUNNY     88  63  42 W7        29.93F
WASHINGTON     SUNNY     86  64  47 SW5       29.91F
ELIZABETH CITY SUNNY     84  66  54 SW8       29.89F
MANTEO         MOSUNNY   83  62  50 NW6       29.90F
CAPE HATTERAS  SUNNY     81  68  64 SW12      29.94F
$$

NCZ078-087-090-091-093-098-101-271900-
SOUTHEASTERN NORTH CAROLINA

CITY           SKY/WX    TMP DP  RH WIND       PRES   REMARKS
LUMBERTON      SUNNY     88  64  44 SW13      29.92F
GOLDSBORO      MOSUNNY   87  63  45 SW6       29.90
KINSTON        SUNNY     88  61  40 CALM      29.92F
KENANSVILLE    MOSUNNY   88  66  48 W8        29.92F
NEW BERN       MOSUNNY   88  65  46 VRB7      29.92F
CHERRY POINT   SUNNY     87  66  49 S13       29.93F
BEAUFORT       SUNNY     81  70  69 SW16      29.94F
JACKSONVILLE   NOT AVBL
WILMINGTON     SUNNY     89  65  44 W13       29.93F
$$




USA.gov is the U.S. government's official web portal to all federal, state and local government web resources and services.